QPF
0.03 0.06 0.09 0.12 0.17 0.19 0.17 0.11 0.12 0.14 0.16 0.17 0.17 0.22 0.19 0.16 0.14 0.11 0.08 0.07 0.07 0.07 0.05 0.04 0.04 0.05 0.04 0.02 0.03 0.03 0.03 0.03 0.03 0.04 0.03 0.02 0.02 0.03 0.04 0.05 0.05 0.04 0.04
0.04 0.09 0.11 0.09 0.13 0.14 0.14 0.12 0.12 0.15 0.16 0.18 0.20 0.23 0.20 0.21 0.16 0.14 0.12 0.10 0.09 0.07 0.05 0.05 0.06 0.06 0.04 0.04 0.04 0.05 0.03 0.03 0.04 0.04 0.04 0.03 0.01 0.02 0.03 0.04 0.04 0.04 0.05
0.04 0.06 0.06 0.07 0.07 0.08 0.08 0.10 0.11 0.13 0.15 0.16 0.17 0.16 0.18 0.17 0.14 0.12 0.12 0.10 0.10 0.10 0.07 0.05 0.06 0.05 0.03 0.03 0.04 0.04 0.03 0.02 0.04 0.04 0.03 0.01 0.01 0.01 0.01 0.02 0.04 0.05 0.05
0.04 0.06 0.06 0.06 0.06 0.06 0.07 0.09 0.10 0.12 0.12 0.12 0.12 0.11 0.11 0.10 0.08 0.09 0.11 0.12 0.11 0.11 0.10 0.07 0.06 0.06 0.05 0.04 0.05 0.04 0.03 0.02 0.03 0.02 0.02 0.01 0.01 0.01 0.01 0.01 0.02 0.03 0.03
0.03 0.05 0.06 0.06 0.06 0.06 0.06 0.08 0.09 0.10 0.12 0.10 0.11 0.10 0.09 0.08 0.10 0.12 0.12 0.13 0.16 0.16 0.14 0.10 0.08 0.07 0.06 0.06 0.06 0.06 0.03 0.02 0.02 0.02 0.02 0.02 0.01 0.01 0.01 0.01 0.02 0.02 0.02
0.04 0.05 0.07 0.09 0.08 0.06 0.07 0.08 0.09 0.09 0.12 0.12 0.13 0.10 0.09 0.07 0.07 0.08 0.07 0.08 0.10 0.12 0.12 0.10 0.10 0.09 0.06 0.05 0.05 0.05 0.04 0.02 0.02 0.02 0.02 0.02 0.02 0.02 0.02 0.01 0.01 0.01 0.01
0.04 0.05 0.07 0.10 0.09 0.08 0.10 0.11 0.12 0.13 0.15 0.16 0.15 0.12 0.10 0.08 0.07 0.07 0.06 0.06 0.07 0.08 0.08 0.08 0.08 0.06 0.05 0.04 0.05 0.04 0.04 0.04 0.03 0.03 0.02 0.02 0.02 0.02 0.02 0.02 0.01 0.01 0.01
0.04 0.05 0.05 0.07 0.06 0.07 0.09 0.13 0.14 0.13 0.12 0.13 0.14 0.12 0.11 0.11 0.10 0.10 0.08 0.07 0.05 0.06 0.08 0.08 0.08 0.07 0.05 0.05 0.05 0.05 0.04 0.05 0.05 0.05 0.04 0.03 0.03 0.03 0.02 0.02 0.02 0.01 0.01
0.05 0.05 0.05 0.05 0.04 0.04 0.07 0.11 0.15 0.12 0.09 0.08 0.07 0.06 0.07 0.10 0.11 0.11 0.09 0.07 0.05 0.06 0.06 0.07 0.09 0.09 0.08 0.08 0.07 0.07 0.06 0.06 0.05 0.06 0.05 0.04 0.05 0.04 0.03 0.02 0.02 0.02 0.01
0.04 0.05 0.06 0.05 0.03 0.02 0.03 0.05 0.13 0.12 0.08 0.06 0.04 0.03 0.04 0.06 0.08 0.09 0.09 0.07 0.07 0.07 0.07 0.07 0.08 0.09 0.09 0.08 0.08 0.07 0.06 0.06 0.06 0.07 0.06 0.04 0.04 0.04 0.04 0.04 0.04 0.04 0.03
0.03 0.03 0.03 0.06 0.05 0.02 0.02 0.04 0.11 0.14 0.09 0.06 0.04 0.04 0.05 0.05 0.05 0.05 0.05 0.06 0.07 0.08 0.07 0.07 0.09 0.12 0.10 0.08 0.08 0.08 0.08 0.07 0.07 0.08 0.08 0.07 0.06 0.05 0.04 0.05 0.06 0.06 0.06
0.02 0.02 0.03 0.05 0.03 0.03 0.03 0.04 0.06 0.09 0.07 0.06 0.06 0.06 0.06 0.06 0.06 0.05 0.04 0.04 0.05 0.06 0.06 0.07 0.10 0.13 0.13 0.12 0.11 0.11 0.09 0.08 0.08 0.08 0.08 0.08 0.09 0.07 0.06 0.06 0.06 0.06 0.06
0.03 0.03 0.03 0.02 0.02 0.02 0.02 0.03 0.05 0.07 0.04 0.04 0.05 0.05 0.05 0.07 0.08 0.07 0.05 0.04 0.04 0.05 0.05 0.05 0.07 0.09 0.11 0.11 0.09 0.09 0.08 0.08 0.08 0.07 0.08 0.07 0.08 0.07 0.07 0.06 0.07 0.07 0.07
0.04 0.03 0.02 0.02 0.02 0.02 0.02 0.02 0.02 0.02 0.02 0.02 0.02 0.02 0.03 0.07 0.10 0.07 0.06 0.05 0.05 0.05 0.04 0.05 0.06 0.08 0.10 0.09 0.08 0.08 0.07 0.06 0.05 0.05 0.06 0.06 0.07 0.06 0.06 0.07 0.07 0.08 0.08
0.03 0.03 0.03 0.03 0.02 0.02 0.02 0.02 0.02 0.02 0.02 0.02 0.02 0.02 0.02 0.03 0.05 0.04 0.04 0.06 0.06 0.07 0.07 0.07 0.08 0.09 0.11 0.12 0.11 0.10 0.09 0.08 0.06 0.05 0.05 0.06 0.08 0.08 0.07 0.07 0.07 0.08 0.08
0.01 0.01 0.02 0.03 0.02 0.02 0.02 0.02 0.02 0.02 0.01 0.02 0.02 0.03 0.03 0.03 0.04 0.05 0.05 0.05 0.04 0.05 0.07 0.09 0.09 0.10 0.12 0.15 0.13 0.11 0.09 0.07 0.05 0.05 0.06 0.08 0.10 0.10 0.10 0.09 0.08 0.06 0.05
0.01 0.01 0.01 0.02 0.02 0.02 0.02 0.01 0.02 0.01 0.01 0.01 0.02 0.02 0.02 0.01 0.02 0.03 0.03 0.04 0.04 0.03 0.04 0.08 0.09 0.09 0.12 0.13 0.12 0.10 0.08 0.07 0.07 0.08 0.09 0.11 0.13 0.14 0.14 0.14 0.12 0.09 0.08
0.01 0.01 0.01 0.01 0.01 0.02 0.02 0.01 0.01 0.01 0.01 0.01 0.01 0.01 0.02 0.02 0.02 0.02 0.02 0.02 0.02 0.03 0.03 0.03 0.03 0.04 0.05 0.07 0.07 0.07 0.06 0.06 0.07 0.08 0.09 0.11 0.12 0.13 0.12 0.11 0.10 0.08 0.08
0.01 0.01 0.01 0.01 0.01 0.02 0.02 0.02 0.02 0.01 0.01 0.01 0.02 0.02 0.03 0.03 0.02 0.03 0.02 0.02 0.01 0.02 0.02 0.02 0.02 0.03 0.03 0.05 0.07 0.09 0.09 0.10 0.10 0.09 0.09 0.09 0.08 0.09 0.09 0.08 0.07 0.07 0.06
0.01 0.02 0.02 0.02 0.02 0.02 0.02 0.03 0.03 0.02 0.01 0.01 0.01 0.03 0.04 0.04 0.03 0.03 0.04 0.03 0.02 0.02 0.02 0.02 0.03 0.04 0.05 0.06 0.08 0.09 0.09 0.08 0.09 0.09 0.09 0.10 0.09 0.07 0.06 0.05 0.05 0.05 0.05
0.03 0.02 0.02 0.03 0.03 0.02 0.02 0.03 0.04 0.03 0.02 0.02 0.03 0.04 0.04 0.05 0.05 0.05 0.06 0.05 0.05 0.04 0.04 0.04 0.03 0.03 0.04 0.05 0.06 0.07 0.07 0.08 0.11 0.13 0.13 0.13 0.11 0.08 0.07 0.05 0.04 0.04 0.04
0.04 0.03 0.03 0.03 0.04 0.04 0.04 0.04 0.04 0.05 0.05 0.03 0.03 0.04 0.04 0.05 0.05 0.05 0.06 0.06 0.07 0.06 0.06 0.05 0.04 0.03 0.03 0.04 0.05 0.06 0.07 0.07 0.09 0.12 0.12 0.12 0.11 0.09 0.08 0.06 0.05 0.04 0.03
0.06 0.05 0.05 0.05 0.05 0.05 0.05 0.05 0.05 0.04 0.05 0.04 0.04 0.04 0.04 0.05 0.05 0.05 0.05 0.05 0.05 0.05 0.05 0.05 0.04 0.03 0.03 0.04 0.06 0.05 0.05 0.05 0.04 0.05 0.06 0.06 0.06 0.06 0.06 0.05 0.03 0.03 0.02
0.06 0.05 0.04 0.03 0.03 0.03 0.03 0.03 0.03 0.04 0.05 0.05 0.05 0.05 0.04 0.05 0.05 0.05 0.05 0.05 0.05 0.05 0.05 0.05 0.05 0.05 0.04 0.05 0.06 0.05 0.05 0.06 0.06 0.06 0.05 0.04 0.04 0.02 0.02 0.02 0.02 0.01 0.01
0.05 0.03 0.03 0.03 0.02 0.02 0.02 0.02 0.02 0.02 0.03 0.04 0.05 0.07 0.07 0.05 0.05 0.06 0.06 0.06 0.07 0.08 0.08 0.07 0.07 0.07 0.07 0.08 0.10 0.09 0.07 0.06 0.05 0.04 0.03 0.02 0.02 0.02 0.02 0.02 0.02 0.02 0.02
0.04 0.03 0.03 0.02 0.02 0.02 0.01 0.02 0.03 0.03 0.03 0.03 0.04 0.06 0.07 0.06 0.06 0.06 0.07 0.08 0.09 0.10 0.10 0.09 0.07 0.07 0.08 0.09 0.08 0.07 0.05 0.03 0.02 0.02 0.01 0.02 0.02 0.03 0.03 0.03 0.03 0.03 0.03
MSLP
1011.72 1012.01 1012.29 1012.54 1012.79 1013.08 1013.42 1013.84 1014.34 1014.90 1015.49 1016.05 1016.54 1016.94 1017.22 1017.38 1017.45 1017.48 1017.49 1017.55 1017.67 1017.87 1018.15 1018.49 1018.87 1019.26 1019.63 1019.96 1020.27 1020.54 1020.79 1021.03 1021.28 1021.52 1021.76 1021.98 1022.16 1022.29 1022.36 1022.37 1022.34 1022.29 1022.25
1011.77 1012.11 1012.41 1012.66 1012.89 1013.13 1013.41 1013.76 1014.21 1014.74 1015.32 1015.91 1016.45 1016.88 1017.19 1017.36 1017.42 1017.40 1017.37 1017.37 1017.45 1017.63 1017.91 1018.28 1018.69 1019.12 1019.52 1019.88 1020.19 1020.45 1020.69 1020.91 1021.15 1021.40 1021.65 1021.90 1022.12 1022.28 1022.38 1022.40 1022.37 1022.29 1022.20
1011.83 1012.21 1012.55 1012.82 1013.03 1013.22 1013.44 1013.73 1014.12 1014.61 1015.18 1015.78 1016.34 1016.81 1017.15 1017.34 1017.39 1017.35 1017.28 1017.23 1017.27 1017.42 1017.69 1018.05 1018.48 1018.92 1019.33 1019.70 1020.00 1020.25 1020.46 1020.67 1020.90 1021.15 1021.42 1021.70 1021.96 1022.17 1022.30 1022.35 1022.32 1022.22 1022.10
1011.88 1012.31 1012.69 1012.99 1013.20 1013.36 1013.52 1013.74 1014.06 1014.50 1015.05 1015.63 1016.21 1016.71 1017.07 1017.28 1017.34 1017.29 1017.20 1017.13 1017.13 1017.25 1017.49 1017.84 1018.26 1018.70 1019.11 1019.47 1019.76 1019.99 1020.18 1020.37 1020.58 1020.83 1021.12 1021.43 1021.73 1021.97 1022.15 1022.22 1022.21 1022.11 1021.97
1011.92 1012.39 1012.82 1013.15 1013.36 1013.50 1013.61 1013.77 1014.02 1014.40 1014.89 1015.46 1016.03 1016.54 1016.93 1017.16 1017.25 1017.21 1017.12 1017.03 1017.02 1017.11 1017.33 1017.66 1018.06 1018.49 1018.89 1019.23 1019.50 1019.72 1019.89 1020.06 1020.26 1020.51 1020.80 1021.12 1021.44 1021.73 1021.93 1022.03 1022.04 1021.95 1021.81
1011.94 1012.46 1012.93 1013.29 1013.53 1013.65 1013.72 1013.81 1013.99 1014.29 1014.72 1015.24 1015.79 1016.30 1016.71 1016.97 1017.09 1017.09 1017.02 1016.95 1016.93 1017.01 1017.21 1017.52 1017.90 1018.30 1018.69 1019.01 1019.27 1019.46 1019.62 1019.78 1019.97 1020.20 1020.49 1020.81 1021.14 1021.43 1021.65 1021.78 1021.81 1021.74 1021.60
1011.95 1012.50 1013.02 1013.42 1013.68 1013.79 1013.83 1013.87 1013.97 1014.19 1014.54 1015.00 1015.51 1016.00 1016.42 1016.72 1016.88 1016.93 1016.90 1016.86 1016.86 1016.94 1017.13 1017.42 1017.77 1018.15 1018.51 1018.82 1019.06 1019.24 1019.38 1019.52 1019.69 1019.91 1020.17 1020.48 1020.80 1021.09 1021.32 1021.46 1021.51 1021.46 1021.36
1011.97 1012.55 1013.10 1013.54 1013.81 1013.93 1013.94 1013.93 1013.96 1014.10 1014.37 1014.76 1015.22 1015.69 1016.11 1016.43 1016.64 1016.73 1016.76 1016.76 1016.79 1016.89 1017.07 1017.34 1017.67 1018.01 1018.34 1018.62 1018.84 1019.00 1019.13 1019.25 1019.41 1019.60 1019.84 1020.12 1020.41 1020.69 1020.92 1021.07 1021.13 1021.12 1021.06
1011.99 1012.59 1013.17 1013.63 1013.93 1014.05 1014.05 1014.00 1013.98 1014.05 1014.24 1014.55 1014.95 1015.39 1015.80 1016.14 1016.38 1016.53 1016.61 1016.66 1016.72 1016.83 1017.01 1017.26 1017.55 1017.85 1018.14 1018.39 1018.58 1018.72 1018.83 1018.94 1019.07 1019.23 1019.45 1019.69 1019.96 1020.21 1020.43 1020.59 1020.69 1020.73 1020.72
1012.02 1012.62 1013.21 1013.69 1014.00 1014.14 1014.14 1014.07 1014.01 1014.03 1014.16 1014.41 1014.75 1015.14 1015.53 1015.88 1016.14 1016.33 1016.45 1016.55 1016.64 1016.76 1016.93 1017.14 1017.39 1017.65 1017.88 1018.08 1018.24 1018.35 1018.45 1018.53 1018.65 1018.79 1018.98 1019.20 1019.43 1019.67 1019.88 1020.06 1020.19 1020.29 1020.36
1012.06 1012.65 1013.23 1013.70 1014.02 1014.16 1014.17 1014.11 1014.04 1014.03 1014.12 1014.32 1014.61 1014.96 1015.32 1015.65 1015.93 1016.14 1016.29 1016.41 1016.52 1016.65 1016.80 1016.98 1017.18 1017.37 1017.56 1017.70 1017.82 1017.90 1017.97 1018.05 1018.14 1018.27 1018.44 1018.65 1018.87 1019.10 1019.31 1019.51 1019.69 1019.85 1020.01
1012.09 1012.64 1013.18 1013.63 1013.94 1014.10 1014.13 1014.09 1014.04 1014.03 1014.11 1014.27 1014.52 1014.83 1015.16 1015.46 1015.73 1015.95 1016.12 1016.26 1016.38 1016.50 1016.64 1016.78 1016.93 1017.06 1017.18 1017.28 1017.35 1017.40 1017.45 1017.52 1017.61 1017.74 1017.91 1018.10 1018.33 1018.56 1018.79 1019.01 1019.24 1019.47 1019.72
1012.09 1012.58 1013.06 1013.47 1013.77 1013.93 1014.00 1014.00 1013.99 1014.01 1014.09 1014.25 1014.47 1014.74 1015.03 1015.31 1015.56 1015.77 1015.95 1016.09 1016.22 1016.34 1016.46 1016.57 1016.67 1016.76 1016.83 1016.87 1016.90 1016.93 1016.97 1017.03 1017.13 1017.27 1017.44 1017.65 1017.89 1018.13 1018.39 1018.65 1018.92 1019.21 1019.54
1012.06 1012.47 1012.87 1013.22 1013.49 1013.67 1013.78 1013.84 1013.89 1013.96 1014.07 1014.23 1014.44 1014.68 1014.93 1015.17 1015.40 1015.60 1015.78 1015.93 1016.07 1016.20 1016.31 1016.41 1016.48 1016.53 1016.56 1016.57 1016.57 1016.57 1016.60 1016.67 1016.78 1016.94 1017.14 1017.38 1017.63 1017.90 1018.18 1018.46 1018.77 1019.11 1019.49
1011.99 1012.31 1012.63 1012.93 1013.17 1013.37 1013.51 1013.64 1013.76 1013.89 1014.05 1014.22 1014.43 1014.64 1014.86 1015.07 1015.27 1015.46 1015.64 1015.80 1015.96 1016.10 1016.23 1016.33 1016.40 1016.44 1016.44 1016.43 1016.41 1016.41 1016.45 1016.53 1016.66 1016.84 1017.07 1017.33 1017.62 1017.91 1018.21 1018.51 1018.84 1019.20 1019.61
1011.92 1012.16 1012.41 1012.65 1012.87 1013.08 1013.28 1013.47 1013.66 1013.86 1014.06 1014.26 1014.45 1014.65 1014.83 1015.01 1015.18 1015.36 1015.55 1015.73 1015.92 1016.10 1016.26 1016.39 1016.48 1016.52 1016.53 1016.51 1016.49 1016.50 1016.54 1016.63 1016.79 1017.00 1017.26 1017.55 1017.86 1018.17 1018.48 1018.79 1019.12 1019.48 1019.89
1011.87 1012.06 1012.26 1012.46 1012.68 1012.91 1013.16 1013.41 1013.66 1013.91 1014.15 1014.36 1014.55 1014.72 1014.87 1015.01 1015.17 1015.34 1015.53 1015.75 1015.98 1016.21 1016.42 1016.59 1016.71 1016.79 1016.81 1016.81 1016.81 1016.82 1016.87 1016.99 1017.17 1017.40 1017.69 1018.01 1018.33 1018.66 1018.98 1019.29 1019.60 1019.94 1020.32
1011.92 1012.09 1012.27 1012.46 1012.69 1012.95 1013.23 1013.53 1013.83 1014.12 1014.37 1014.58 1014.74 1014.88 1014.98 1015.09 1015.22 1015.39 1015.60 1015.85 1016.12 1016.41 1016.68 1016.91 1017.09 1017.20 1017.27 1017.29 1017.31 1017.34 1017.41 1017.54 1017.74 1018.00 1018.31 1018.65 1018.99 1019.33 1019.65 1019.95 1020.24 1020.55 1020.89
1012.11 1012.30 1012.49 1012.70 1012.95 1013.24 1013.55 1013.88 1014.19 1014.48 1014.72 1014.90 1015.02 1015.11 1015.17 1015.24 1015.34 1015.50 1015.72 1016.00 1016.33 1016.67 1017.00 1017.30 1017.53 1017.70 1017.81 1017.87 1017.91 1017.97 1018.06 1018.22 1018.44 1018.72 1019.05 1019.40 1019.76 1020.11 1020.43 1020.72 1020.99 1021.27 1021.57
1012.45 1012.70 1012.94 1013.19 1013.46 1013.76 1014.09 1014.41 1014.72 1014.97 1015.17 1015.29 1015.35 1015.37 1015.38 1015.41 1015.48 1015.63 1015.87 1016.18 1016.55 1016.94 1017.33 1017.69 1017.98 1018.20 1018.36 1018.46 1018.54 1018.63 1018.75 1018.93 1019.17 1019.47 1019.82 1020.19 1020.57 1020.92 1021.25 1021.54 1021.80 1022.06 1022.32
1012.96 1013.28 1013.58 1013.87 1014.17 1014.47 1014.78 1015.07 1015.33 1015.52 1015.64 1015.68 1015.67 1015.62 1015.57 1015.55 1015.60 1015.75 1015.99 1016.33 1016.73 1017.17 1017.62 1018.03 1018.37 1018.65 1018.86 1019.01 1019.13 1019.26 1019.41 1019.62 1019.89 1020.21 1020.58 1020.97 1021.36 1021.73 1022.06 1022.36 1022.63 1022.87 1023.12
1013.59 1013.99 1014.35 1014.67 1014.98 1015.26 1015.53 1015.76 1015.93 1016.03 1016.05 1016.00 1015.90 1015.78 1015.68 1015.62 1015.66 1015.80 1016.06 1016.42 1016.85 1017.34 1017.83 1018.29 1018.69 1019.01 1019.28 1019.48 1019.65 1019.82 1020.02 1020.26 1020.55 1020.90 1021.29 1021.69 1022.10 1022.49 1022.84 1023.15 1023.43 1023.68 1023.92
1014.30 1014.77 1015.16 1015.50 1015.79 1016.03 1016.23 1016.36 1016.43 1016.42 1016.33 1016.19 1016.01 1015.83 1015.68 1015.61 1015.64 1015.79 1016.07 1016.45 1016.92 1017.45 1017.98 1018.48 1018.93 1019.31 1019.62 1019.88 1020.11 1020.33 1020.57 1020.85 1021.17 1021.54 1021.94 1022.37 1022.78 1023.18 1023.55 1023.88 1024.17 1024.44 1024.69
1015.02 1015.53 1015.94 1016.26 1016.51 1016.69 1016.79 1016.82 1016.77 1016.65 1016.46 1016.24 1015.99 1015.77 1015.60 1015.52 1015.57 1015.74 1016.05 1016.47 1016.98 1017.54 1018.11 1018.65 1019.15 1019.58 1019.95 1020.26 1020.54 1020.81 1021.10 1021.41 1021.76 1022.14 1022.55 1022.98 1023.40 1023.80 1024.18 1024.52 1024.82 1025.11 1025.38
1015.72 1016.23 1016.62 1016.91 1017.10 1017.19 1017.20 1017.12 1016.97 1016.74 1016.47 1016.18 1015.89 1015.65 1015.49 1015.44 1015.52 1015.73 1016.08 1016.54 1017.09 1017.68 1018.29 1018.87 1019.41 1019.88 1020.30 1020.66 1020.99 1021.31 1021.63 1021.97 1022.33 1022.72 1023.12 1023.53 1023.94 1024.33 1024.70 1025.05 1025.36 1025.66 1025.95
1016.34 1016.82 1017.17 1017.41 1017.53 1017.55 1017.47 1017.30 1017.06 1016.76 1016.43 1016.11 1015.81 1015.59 1015.45 1015.45 1015.58 1015.85 1016.25 1016.75 1017.33 1017.96 1018.59 1019.20 1019.76 1020.27 1020.72 1021.13 1021.49 1021.84 1022.18 1022.52 1022.88 1023.26 1023.64 1024.03 1024.41 1024.77 1025.12 1025.45 1025.77 1026.08 1026.37
Thickness
5794 5791 5787 5783 5777 5771 5768 5764 5759 5755 5750 5744 5740 5737 5735 5736 5736 5737 5737 5737 5736 5736 5734 5734 5732 5731 5731 5730 5729 5727 5725 5724 5724 5721 5719 5721 5722 5723 5723 5722 5721 5721 5720
5791 5788 5785 5781 5776 5772 5768 5764 5761 5756 5752 5748 5743 5741 5739 5737 5737 5738 5737 5737 5736 5735 5734 5734 5732 5731 5730 5729 5728 5726 5724 5723 5722 5719 5715 5712 5715 5719 5723 5721 5721 5720 5719
5790 5787 5782 5779 5776 5773 5770 5767 5763 5759 5755 5750 5745 5740 5737 5736 5734 5735 5736 5737 5736 5736 5736 5734 5733 5732 5730 5729 5728 5726 5724 5721 5721 5721 5717 5710 5708 5713 5717 5719 5720 5719 5718
5792 5786 5781 5778 5776 5774 5772 5768 5763 5759 5756 5752 5746 5742 5737 5735 5736 5736 5736 5736 5736 5736 5735 5734 5733 5731 5730 5729 5728 5727 5726 5723 5719 5719 5718 5717 5715 5710 5710 5714 5716 5717 5716
5792 5786 5782 5780 5777 5775 5771 5767 5763 5759 5755 5751 5748 5743 5740 5738 5737 5736 5735 5734 5734 5734 5734 5733 5732 5731 5730 5729 5728 5727 5726 5725 5722 5719 5717 5715 5713 5712 5709 5707 5710 5712 5713
5791 5786 5783 5780 5776 5774 5770 5766 5762 5758 5755 5750 5747 5744 5740 5737 5735 5734 5733 5733 5733 5733 5733 5733 5731 5731 5730 5729 5728 5727 5726 5724 5722 5720 5718 5716 5713 5711 5709 5706 5705 5706 5708
5789 5784 5780 5777 5773 5771 5768 5765 5760 5756 5754 5750 5747 5744 5742 5738 5736 5735 5734 5732 5732 5731 5732 5732 5731 5730 5729 5728 5727 5726 5725 5724 5722 5720 5719 5718 5717 5715 5711 5707 5704 5702 5703
5787 5783 5780 5776 5772 5769 5767 5763 5759 5755 5753 5750 5747 5745 5742 5740 5738 5736 5734 5733 5733 5733 5732 5731 5729 5729 5728 5727 5725 5724 5723 5722 5721 5720 5718 5717 5716 5715 5712 5709 5704 5699 5698
5785 5782 5778 5775 5771 5768 5766 5763 5758 5755 5752 5749 5746 5744 5742 5740 5738 5736 5735 5733 5732 5732 5731 5729 5728 5727 5726 5724 5723 5722 5721 5720 5719 5717 5716 5715 5714 5713 5711 5710 5707 5701 5694
5783 5779 5776 5772 5769 5767 5765 5762 5759 5754 5751 5748 5745 5744 5742 5740 5738 5736 5734 5732 5732 5731 5729 5727 5726 5725 5724 5722 5721 5719 5718 5716 5715 5714 5713 5712 5711 5709 5708 5707 5705 5703 5697
5781 5777 5773 5769 5767 5765 5763 5760 5757 5753 5748 5746 5744 5743 5741 5739 5737 5735 5733 5731 5730 5729 5727 5725 5724 5722 5720 5719 5718 5716 5715 5713 5712 5711 5709 5708 5707 5706 5704 5703 5701 5698 5695
5780 5776 5772 5767 5765 5763 5761 5759 5756 5752 5748 5746 5743 5741 5739 5736 5734 5733 5731 5729 5728 5726 5724 5722 5720 5719 5718 5716 5715 5712 5711 5709 5707 5706 5705 5703 5702 5700 5699 5697 5695 5693 5690
5776 5772 5769 5766 5764 5761 5759 5757 5754 5751 5747 5744 5740 5737 5735 5733 5731 5729 5728 5726 5725 5723 5721 5719 5717 5716 5715 5713 5711 5709 5707 5705 5704 5702 5701 5699 5697 5694 5693 5691 5689 5686 5683
5773 5769 5766 5764 5762 5759 5757 5754 5751 5748 5745 5741 5738 5734 5732 5730 5728 5726 5724 5722 5721 5719 5718 5716 5715 5713 5711 5709 5706 5704 5701 5699 5698 5696 5695 5693 5691 5689 5687 5684 5682 5679 5674
5770 5767 5763 5760 5759 5757 5755 5751 5748 5745 5742 5738 5735 5732 5729 5727 5724 5722 5720 5718 5717 5716 5714 5712 5710 5708 5706 5704 5701 5699 5695 5693 5690 5688 5687 5686 5685 5683 5681 5678 5674 5670 5665
5769 5766 5763 5759 5757 5755 5752 5749 5745 5742 5739 5734 5731 5728 5725 5722 5719 5717 5714 5712 5711 5709 5708 5707 5705 5702 5700 5698 5696 5693 5689 5686 5683 5679 5677 5676 5674 5673 5671 5668 5665 5661 5656
5770 5766 5763 5759 5756 5754 5751 5747 5742 5738 5734 5730 5727 5724 5720 5717 5714 5711 5708 5705 5703 5702 5701 5699 5698 5695 5693 5691 5689 5686 5682 5678 5675 5672 5669 5666 5663 5661 5658 5654 5652 5648 5644
5769 5765 5761 5757 5754 5751 5748 5744 5739 5734 5730 5726 5723 5719 5716 5712 5708 5705 5702 5699 5697 5695 5693 5691 5689 5687 5684 5682 5680 5677 5674 5670 5666 5663 5660 5656 5652 5649 5647 5643 5638 5634 5630
5768 5764 5759 5755 5750 5746 5743 5738 5733 5729 5725 5721 5717 5714 5711 5707 5703 5699 5696 5693 5691 5688 5685 5682 5680 5678 5674 5673 5671 5669 5665 5661 5656 5653 5650 5646 5642 5639 5636 5633 5627 5622 5617
5762 5757 5753 5749 5744 5739 5736 5731 5727 5723 5719 5715 5712 5709 5705 5702 5698 5694 5691 5687 5684 5680 5677 5673 5671 5669 5666 5663 5662 5660 5657 5652 5647 5642 5639 5636 5632 5629 5626 5622 5618 5611 5604
5754 5750 5746 5741 5736 5732 5729 5724 5720 5716 5713 5710 5706 5702 5698 5695 5692 5688 5684 5680 5676 5672 5668 5664 5660 5658 5656 5653 5651 5650 5648 5643 5638 5633 5628 5624 5622 5618 5615 5612 5607 5601 5595
5744 5740 5736 5731 5727 5725 5722 5717 5712 5708 5706 5702 5698 5694 5691 5688 5685 5680 5676 5672 5669 5665 5660 5655 5651 5647 5645 5643 5640 5639 5637 5634 5629 5622 5617 5612 5610 5607 5603 5598 5594 5589 5585
5734 5730 5726 5721 5718 5716 5714 5709 5704 5701 5698 5694 5690 5687 5683 5680 5677 5673 5669 5665 5661 5657 5652 5648 5643 5638 5635 5632 5629 5627 5625 5621 5617 5611 5606 5602 5598 5594 5589 5585 5581 5577 5573
5723 5720 5717 5712 5708 5705 5704 5702 5697 5694 5691 5687 5683 5679 5675 5671 5667 5663 5660 5657 5653 5649 5645 5640 5635 5630 5625 5622 5619 5615 5612 5608 5604 5599 5594 5590 5586 5582 5577 5572 5568 5564 5560
5713 5710 5707 5704 5699 5696 5694 5692 5690 5687 5684 5679 5675 5671 5666 5662 5656 5652 5648 5645 5642 5640 5637 5634 5629 5624 5618 5613 5610 5607 5602 5598 5594 5589 5584 5579 5574 5570 5565 5560 5556 5552 5547
5703 5700 5697 5695 5692 5688 5685 5683 5681 5679 5676 5671 5666 5662 5657 5653 5647 5642 5636 5632 5630 5628 5625 5622 5619 5614 5610 5604 5600 5596 5593 5588 5584 5580 5574 5569 5564 5559 5555 5550 5545 5540 5535